Tracking 19176 objects as of 27-May-2018
HD Live streaming from Space Station
objects crossing your sky now

NOAA 16 DEB

Track NOAA 16 DEB now!
10-day predictions


NORAD ID: 41259
Int'l Code: 2000-055FK
Perigee: 714.0 km
Apogee: 854.2 km
Inclination: 98.8 °
Period: 100.4 minutes
Semi major axis: 7155 km
RCS: Unknown
Launch date: September 21, 2000
Source: United States (US)
Launch site: AIR FORCE WESTERN TEST RANGE (AFWTR)

Note: This is SATELLITE DEBRIS
aabbcc
Your satellite tracking list
Your tracking list is empty




NASA's NSSDC Master Catalog

Two Line Element Set (TLE):
1 41259U 00055FK  18146.52854020  .00002693  00000-0  92215-3 0  9999
2 41259  98.8361 246.2399 0097953 284.8597  74.1754 14.34433808127410
Source of the keplerian elements: AFSPC